Weather History for KIND - May, 2013

Change the Weather History Date:

Wednesday, May 8, 2013

  Actual Average Record
Temperature  
Mean Temperature 68 °F 60 °F  
Max Temperature 78 °F 70 °F 90 °F (1896)
Min Temperature 57 °F 50 °F 31 °F (1976)
Degree Days  
Heating Degree Days 0 6  
Month to date heating degree days 18 54  
Since 1 July heating degree days 5311 5276  
Cooling Degree Days 3 1  
Month to date cooling degree days 13 8  
Year to date cooling degree days 22 23  
Growing Degree Days 18 (Base 50)    
Moisture  
Dew Point 55 °F    
Average Humidity 72    
Maximum Humidity 100    
Minimum Humidity 43    
Precipitation  
Precipitation 0.00 in 0.16 in 2.34 in (1961)
Month to date precipitation 0.43 1.27  
Year to date precipitation 18.76 13.62  
Snow  
Snow 0.00 in 0.00 in 0.30 in (1923)
Month to date snowfall 0.0 0.0  
Since 1 July snowfall 34.5 25.9  
Snow Depth 0.00 in    
Sea Level Pressure  
Sea Level Pressure 29.97 in    
Wind  
Wind Speed 4 mph (WNW)    
Max Wind Speed 13 mph    
Max Gust Speed 28 mph    
Visibility 10 miles    
Events      
T = Trace of Precipitation, MM = Missing Value Source: NWS Daily Summary

Daily Weather History Graph

Daily Weather History Graph

Search for Another Location

Airport or City:

Trip Planner

Search our weather history database for the weather conditions in past years. The results will help you decide how hot, cold, wet, or windy it might be!

Date:

Astronomy

May. 08, 2013 Rise Set
Actual Time 6:37 AM EDT 8:46 PM EDT
Civil Twilight 6:07 AM EDT 9:16 PM EDT
Nautical Twilight 5:31 AM EDT 9:53 PM EDT
Astronomical Twilight 4:51 AM EDT 10:33 PM EDT
Moon 5:44 AM EDT (5/8) 7:44 PM EDT (5/8)
Length of Visible Light 15h 08m
Length of Day
14h 09m
Waning Crescent, 2% of the Moon is Illuminated
May 8
Waning Crescent
May 9
New
May 18
First Quarter
May 25
Full
May 31
Last Quarter

Hourly Weather History & Observations

Time (EDT) Temp. Dew Point Humidity Pressure Visibility Wind Dir Wind Speed Gust Speed Precip Events Conditions
12:54 AM 57.9 °F 57.0 °F 97% 29.97 in 9.0 mi NW 3.5 mph - N/A   Mostly Cloudy
1:54 AM 60.1 °F 57.0 °F 90% 29.96 in 10.0 mi Calm Calm - N/A   Overcast
2:54 AM 60.1 °F 57.0 °F 90% 29.95 in 10.0 mi Calm Calm - N/A   Overcast
3:54 AM 59.0 °F 57.0 °F 93% 29.94 in 10.0 mi NNE 3.5 mph - N/A   Overcast
4:54 AM 59.0 °F 57.0 °F 93% 29.95 in 10.0 mi North 3.5 mph - N/A   Overcast
5:54 AM 59.0 °F 55.9 °F 90% 29.95 in 10.0 mi North 4.6 mph - N/A   Overcast
6:54 AM 57.0 °F 55.0 °F 93% 29.97 in 8.0 mi Calm Calm - N/A   Mostly Cloudy
7:54 AM 61.0 °F 57.0 °F 87% 29.99 in 8.0 mi Calm Calm - N/A   Scattered Clouds
8:54 AM 64.9 °F 57.9 °F 78% 30.01 in 10.0 mi Calm Calm - N/A   Scattered Clouds
9:54 AM 69.1 °F 55.0 °F 61% 30.01 in 10.0 mi Variable 3.5 mph - N/A   Scattered Clouds
10:54 AM 72.0 °F 55.0 °F 55% 30.01 in 10.0 mi West 4.6 mph - N/A   Mostly Cloudy
11:54 AM 71.1 °F 55.0 °F 57% 30.01 in 10.0 mi NNW 5.8 mph - N/A   Mostly Cloudy
12:54 PM 73.0 °F 54.0 °F 51% 30.00 in 10.0 mi Variable 5.8 mph - N/A   Scattered Clouds
1:54 PM 73.0 °F 53.1 °F 49% 29.99 in 10.0 mi WNW 5.8 mph - N/A   Mostly Cloudy
2:54 PM 73.9 °F 57.0 °F 55% 29.99 in 10.0 mi West 6.9 mph - N/A   Mostly Cloudy
3:54 PM 75.9 °F 55.0 °F 48% 29.97 in 10.0 mi WSW 5.8 mph - N/A   Mostly Cloudy
4:54 PM 77.0 °F 53.1 °F 43% 29.95 in 10.0 mi Variable 3.5 mph - N/A   Mostly Cloudy
5:54 PM 77.0 °F 54.0 °F 45% 29.95 in 10.0 mi WSW 9.2 mph - N/A   Mostly Cloudy
6:54 PM 75.0 °F 53.1 °F 46% 29.95 in 10.0 mi West 10.4 mph - N/A   Mostly Cloudy
7:54 PM 71.1 °F 54.0 °F 55% 29.96 in 10.0 mi Calm Calm - N/A   Mostly Cloudy
8:54 PM 66.0 °F 53.1 °F 63% 29.96 in 10.0 mi SSW 5.8 mph - N/A   Mostly Cloudy
9:54 PM 66.0 °F 54.0 °F 65% 29.96 in 10.0 mi SW 5.8 mph - N/A   Mostly Cloudy
10:54 PM 69.1 °F 54.0 °F 58% 29.98 in 10.0 mi Variable 4.6 mph 16.1 mph N/A   Overcast
11:54 PM 64.0 °F 55.0 °F 73% 29.99 in 10.0 mi SE 8.1 mph - N/A   Mostly Cloudy